Location: Blanot
(47.1713°N, 4.2340°E)
Time: 08:46:22
(UTC+00:00)

Cosmos 1607 - Pass Details

Date: 14 July 2020
Orbit: 912 x 990 km, 65.0° (Epoch: 14 August)

Event Time Altitude Azimuth Distance (km) Brightness Sun altitude
Exits shadow 00:20:03 21° 240° (WSW) 1,968 5.3 -20.8°
Maximum altitude 00:24:11 58° 313° (NW) 1,102 4.4 -20.7°
Drops below altitude 10° 00:30:26 10° 32° (NNE) 2,713 7.3 -20.6°
Sets 00:33:05 0° 37° (NE) 3,674 8.1 -20.5°
